Home > Weather > Marigot > Past weeks

Weather for the Past 2 Weeks in Marigot, Saint Martin

Now
81 °F

Passing clouds.


Feels Like: 83 °F
Forecast: N/A
Wind: 10 mph from East

Location: Juliana Airport - Saint Maarten

Current Time: Feb 13, 2016 at 5:31:38 PM

Latest Report: Feb 13, 2016 at 4:00 PM


Visibility: N/A

Pressure: 29.98 "Hg

Humidity: 66%

Dew point: 68 °F

Location of MarigotLocation

Historic Weather in Marigot — Graph

°F

Marigot Temperature Yesterday

Maximum temperature yesterday: 82 °F (at 10:00 AM)
Minimum temperature yesterday: 75 °F (at 6:00 AM)
Average temperature yesterday: 80 °F

High & Low Weather Summary for the Past Weeks

 TemperatureHumidityPressure
High84 °F (Feb 5, 12:00 PM)100% (Jan 30, 1:00 AM)30.15 "Hg (Jan 30, 1:00 AM)
Low73 °F (Jan 30, 12:00 AM)54% (Feb 4, 3:00 PM)29.86 "Hg (Feb 4, 3:00 PM)
Average79 °F74%30.04 "Hg
* Reported Jan 29 4:00 PM — Feb 13 4:00 PM, Marigot, Weather by CustomWeather, © 2016

Note: Actual official high and low records may vary slightly from our data, if they occured in-between our weather recording intervals... More about our weather records

Advertising

Marigot Weather History for the Previous 24 Hours

 ConditionsComfort  
Time TempWeatherWind HumidityBarometerVisibility
4:00 PM
Sat, Feb 13
81 °FPassing clouds.10 mph66%29.98 "HgN/A
3:00 PM82 °FPartly sunny.9 mph62%29.98 "HgN/A
2:00 PM82 °FScattered clouds.9 mph62%29.98 "HgN/A
1:00 PM84 °FScattered clouds.10 mph55%30.04 "HgN/A
12:00 PM82 °FScattered clouds.12 mph58%30.04 "HgN/A
11:00 AM81 °FScattered showers. Broken clouds.10 mph66%30.07 "HgN/A
10:00 AM81 °FScattered showers. Partly sunny.10 mph66%30.07 "HgN/A
9:00 AM81 °FScattered showers. Scattered clouds.12 mph62%30.07 "HgN/A
8:00 AM79 °FPassing clouds.9 mph65%30.04 "HgN/A
7:00 AM77 °FPassing clouds.13 mph69%30.04 "HgN/A
6:00 AM77 °FPassing clouds.10 mph74%30.01 "HgN/A
5:00 AM77 °FPassing clouds.9 mph74%30.01 "HgN/A
2:00 AM79 °FPassing clouds.10 mph70%30.04 "HgN/A
1:00 AM79 °FPassing clouds.9 mph70%30.04 "HgN/A
12:00 AM79 °FPassing clouds.12 mph70%30.07 "HgN/A
11:00 PM
Fri, Feb 12
79 °FPassing clouds.12 mph74%30.07 "HgN/A
10:00 PM79 °FPassing clouds.7 mph74%30.07 "HgN/A
9:00 PM79 °FPassing clouds.10 mph70%30.07 "HgN/A
8:00 PM79 °FPassing clouds.9 mph70%30.07 "HgN/A
7:00 PM79 °FPassing clouds.13 mph70%30.07 "HgN/A
6:00 PM79 °FPassing clouds.13 mph70%30.07 "HgN/A
5:00 PM81 °FScattered clouds.13 mph70%30.04 "HgN/A
Weather by CustomWeather, © 2016

See weather overviewHow to use our weather pages